国际通讯卫星 505星 (INTELSAT 505)

导读 | 星芒AI

INTELSAT 505 是一颗由 Intelsat 运营的通信卫星,于 2001 年 9 月 21 日由阿里安 5 运载火箭发射升空。该卫星位于西经 172 度的轨道位置,主要为北美、中美洲和加勒比地区提供广播和固定业务通信服务。INTELSAT 505 搭载 C 波段和 Ku 波段转发器,支持电视广播、企业通信和互联网服务。其设计寿命为 15 年,由波音卫星系统制造,是 Intelsat 转向现代化卫星通信网络的重要组成部分。

基本信息
目录编号:
13595
目录名称:
INTELSAT 505
国际标识:
1982-097A
轨道中心:
EARTH
卫星名称:
国际通讯卫星 505星
卫星全名:
国际通讯卫星 505星 (INTELSAT 505)
卫星状态:
在轨 (已飞行15784 天)
发射日期:
1982-09-28 UTC
国别 :
(ITSO)
星等 :
--
轨道信息
数据来源 国际轨道数据
星历时间: 2025-12-14T08:52:47+0800
1天前
查看轨道信息
半长轴: 42696.576km
偏心率: 0.0014429
轨道倾角: 12.365°
近地点辐角 21.267°
升交点赤经 332.526°
平近点角 346.095°
近地点: 36256.834km
远地点: 36380.048km
周期: 1463.354分钟
每日圈数: 0.984041
详细信息
卫星平台:
Intelsat V
平衡模式:
三轴稳定
覆盖范围:
全球
运营商:
国际卫星通信公司
运营商所在国:
美国
制造商(研发单位):
福特工程公司
制造商所在国:
美国
使用方式:
暂无
卫星简介
从1965年4月至1984年3月,国际通信卫星组织发射了5代、6种不同性能的卫星共计35颗,除6颗卫星因运载火箭和远地点发动机故障而发射失败外,其余29颗卫星均被送到了预定的静止轨道位置。1984年8月前后,国际通信卫星组织利用部署在大西洋、太平洋、印度洋上空的15颗国际通信卫星,为遍布世界各地170多个国家或地区提供电话、电传、电报、电视和数据传输等电信业务;该卫星已退役。
2D轨道图
3D轨道图
轨道高度分析图
轨道倾角分析图
轨道综合分析图
查看轨道综合分析图